Location: Gravenhurst
(44.9196°N, 79.3742°W)
Time: 05:17:40
(UTC-05:00)

N. Korean satellite - Pass Details

Date: 27 October 2019
Orbit: 456 x 506 km, 97.2° (Epoch: 14 November)

Event Time Altitude Azimuth Distance (km) Brightness Sun altitude
Rises 19:24:59 0° 210° (SSW) 2,472 10.7 -13.2°
Reaches altitude 10° 19:27:52 10° 237° (WSW) 1,611 10.2 -13.8°
Maximum altitude 19:29:40 14° 269° (W) 1,412 10.2 -14.1°
Drops below altitude 10° 19:31:30 10° 301° (WNW) 1,631 10.1 -14.4°
Sets 19:34:26 0° 328° (NNW) 2,526 10.6 -14.9°
